Location: Kosice
(0.0000°N, 21.2500°E)
Time: 21:10:36
(UTC+02:00)

Daily predictions for brighter satellites

Satellite Brightness Start Highest point End
(mag) Time Altitude Azimuth Time Altitude Azimuth Time Altitude Azimuth
Ariane H10-3 3.7 18:52:12 10° WNW 18:58:07 41° N 19:02:29 10° ENE
STARLINK-1124 3.7 18:54:37 10° NNW 18:58:40 59° NE 19:02:45 10° SE
Envisat 3.6 18:54:35 10° S 18:59:36 62° WSW 19:04:36 10° NNW
Okean 1-7 Rocket 3.8 18:55:28 10° N 18:59:52 80° W 19:04:20 10° S
SL-14 R/B 3.4 18:56:20 10° N 19:00:09 52° E 19:03:55 10° SSE
STARLINK-1122 3.6 18:59:31 10° NNW 19:03:37 70° ENE 19:07:44 10° SE
Aureole 2 Rocket 4.2 19:04:16 10° ENE 19:05:01 11° ENE 19:05:45 10° E
Cosmos 2369 Rocket 3.9 19:03:00 10° NE 19:05:26 13° ENE 19:07:51 10° E
YAOGAN 1 3.6 19:03:12 10° SE 19:06:48 26° ENE 19:10:24 10° NNE
STARLINK-1126 3.6 19:04:29 10° NNW 19:08:36 82° ENE 19:12:44 10° SE
Cosmos 1908 4.0 19:06:03 10° SSE 19:09:24 29° E 19:12:45 10° NNE
ATLAS 3B CENTAUR R/B 2.9 19:00:10 10° NW 19:10:51 60° NNE 19:15:10 12° ESE
ARIANE 5 DEB (SYLDA) 3.5 19:07:42 10° WNW 19:11:18 29° N 19:13:15 10° ENE
STARLINK-1082 3.6 19:09:26 10° NW 19:13:33 86° SW 19:17:41 10° SSE
Cosmos 1302 Rocket 4.0 19:09:16 10° N 19:14:30 68° ENE 19:19:44 10° SSE
Cosmos 1340 Rocket 3.7 19:12:49 10° SSE 19:16:18 27° E 19:19:45 10° NE
STARLINK-1100 3.8 19:14:25 10° NW 19:18:32 74° SW 19:22:39 10° SSE
STARLINK-1083 4.0 19:19:23 10° NW 19:23:28 63° SW 19:27:34 10° SSE
STARLINK-80 3.6 19:21:01 10° SSW 19:24:40 47° SE 19:28:18 10° NE
Cosmos 2084 Rocket 4.3 19:23:39 10° N 19:27:36 32° ENE 19:30:00 19° ESE
Cosmos 2058 Rocket 3.7 19:24:11 10° SSE 19:28:13 33° E 19:32:15 10° NNE
Cosmos 1726 Rocket 3.5 19:24:04 10° S 19:28:22 61° E 19:32:41 10° NNE
STARLINK-1125 4.3 19:24:24 10° NW 19:28:26 54° SW 19:32:29 10° SSE
TSX-5 3.0 19:28:31 10° NNW 19:31:42 70° ENE 19:34:23 13° SSE
Cosmos 1626 Rocket 3.5 19:28:59 10° N 19:33:16 90° WSW 19:37:35 10° S
NOAA 11 4.1 19:28:00 10° SSE 19:33:26 82° ENE 19:38:52 10° N
Cosmos 2228 3.0 19:31:24 10° S 19:35:39 81° W 19:39:54 10° N
GOES 2 Rocket 3.8 19:32:25 10° NW 19:36:14 33° NNE 19:37:55 24° ENE
Cosmos 1140 Rocket 4.4 19:32:54 10° SSW 19:37:58 52° WNW 19:43:00 10° N
H-2A R/B 3.9 19:41:53 14° NE 19:41:53 14° NE 19:43:09 10° NE
USA 234 3.2 19:36:07 10° NE 19:42:39 85° SE 19:49:13 10° SW
SWIFT 2.7 19:41:19 10° SW 19:45:22 47° SSE 19:46:30 36° ESE
NATO 3D Rocket 4.3 19:41:12 10° W 19:46:07 48° SSW 19:50:06 21° SE
Cosmos 1602 Rocket 3.5 19:41:49 10° N 19:46:09 83° W 19:50:28 10° S
Cosmos 1939 Rocket 3.0 19:42:38 10° S 19:46:37 71° WSW 19:50:31 10° NNW
CZ-4 R/B 2.4 19:46:50 10° S 19:50:33 44° WSW 19:54:13 10° NNW
Nadezhda 1 Rocket 4.0 19:44:49 10° S 19:51:14 90° WNW 19:57:36 10° N
GPS 2-15 Rocket1 4.5 19:48:10 10° NW 19:52:23 28° NNE 19:53:45 24° NE
ARGOS Delta rocket 4.2 19:50:56 26° SE 19:53:26 46° E 19:58:25 10° N
CZ-2D R/B 3.8 19:50:54 10° S 19:54:39 57° WSW 19:58:23 10° NNW
Delta 2 Rocket 3.8 19:50:08 10° SW 19:56:16 64° SSE 19:58:36 37° E
Cosmos 1850 Rocket 4.3 19:52:06 10° S 19:57:00 41° ESE 19:57:23 41° E
Sylda 4400 3.0 19:56:57 10° W 20:02:12 71° S 20:02:12 71° S
CZ-2C R/B 3.5 19:58:44 10° NNE 20:03:14 70° ESE 20:07:40 10° S
STARLINK-55 4.4 20:00:48 10° SSW 20:02:34 30° SSW 20:02:34 30° SSW
Cosmos 2184 Rocket 4.0 19:58:10 10° N 20:04:10 55° E 20:07:55 23° SSE
Cosmos 292 Rocket 3.8 20:02:07 10° NNW 20:06:57 80° WSW 20:09:53 24° S
STARLINK-28 4.3 20:05:05 10° SW 20:07:01 33° SW 20:07:01 33° SW
Cosmos 1758 Rocket 3.5 20:12:30 10° N 20:16:24 74° NNW 20:16:24 74° NNW
Ariane 44P Rocket 4.1 19:32:21 10° W 20:18:17 73° S 20:20:28 48° ESE
Milstar 3 Cent rocket 4.3 20:11:07 10° WNW 20:19:33 63° SSW 20:29:39 28° SE
Cosmos 1943 Rocket 3.0 20:22:41 10° NNW 20:28:03 48° WSW 20:31:53 19° S
CZ-3A R/B 4.0 20:09:39 10° NW 20:29:15 34° N 20:31:45 28° NNE
USA 215 4.4 20:30:39 16° S 20:35:18 37° SW 20:41:12 10° WNW
Cosmos 2369 Rocket 3.2 20:43:57 10° NW 20:49:10 41° WSW 20:50:07 38° SW
COSMOS 2406 4.1 20:44:51 10° SSW 20:50:14 46° WNW 20:52:26 31° NNW
VEP-3 4.5 20:58:00 10° WSW 21:33:47 57° S 21:33:47 57° S
